Time,TemperatureF,DewpointF,PressureIn,WindDirection,WindDirectionDegrees,WindSpeedMPH,WindSpeedGustMPH,Humidity,HourlyPrecipIn,Conditions,Clouds,dailyrainin,SoftwareType,DateUTC
2013-05-01 00:03:00,56.0,31.0,29.87,SW,221,2.0,4.0,39,0.00,,,0.00,Meteo,2013-05-01 05:03:00,
2013-05-01 00:08:00,56.0,31.0,29.88,SW,222,2.0,6.0,39,0.00,,,0.00,Meteo,2013-05-01 05:08:00,
2013-05-01 00:13:00,56.0,31.0,29.88,SSW,205,1.0,3.0,39,0.00,,,0.00,Meteo,2013-05-01 05:13:00,
2013-05-01 00:18:00,56.0,32.0,29.88,SW,231,1.0,3.0,40,0.00,,,0.00,Meteo,2013-05-01 05:18:00,
2013-05-01 00:24:00,56.0,32.0,29.89,SW,218,3.0,5.0,40,0.00,,,0.00,Meteo,2013-05-01 05:24:00,
2013-05-01 00:29:00,56.0,32.0,29.89,SW,233,3.0,5.0,40,0.00,,,0.00,Meteo,2013-05-01 05:29:00,
2013-05-01 00:34:00,56.0,32.0,29.90,SSW,211,4.0,8.0,40,0.00,,,0.00,Meteo,2013-05-01 05:34:00,
2013-05-01 00:39:00,56.0,32.0,29.90,SW,216,2.0,4.0,40,0.00,,,0.00,Meteo,2013-05-01 05:39:00,
2013-05-01 00:44:00,56.0,33.0,29.91,SW,225,1.0,1.0,41,0.00,,,0.00,Meteo,2013-05-01 05:44:00,
2013-05-01 00:49:00,56.0,33.0,29.91,SW,225,1.0,2.0,41,0.00,,,0.00,Meteo,2013-05-01 05:49:00,
2013-05-01 00:54:00,56.0,33.0,29.91,SSW,204,3.0,7.0,42,0.00,,,0.00,Meteo,2013-05-01 05:54:00,
2013-05-01 00:59:00,56.0,33.0,29.91,SW,222,2.0,3.0,42,0.00,,,0.00,Meteo,2013-05-01 05:59:00,
2013-05-01 01:04:00,56.0,33.0,29.91,SSW,213,2.0,6.0,42,0.00,,,0.00,Meteo,2013-05-01 06:04:00,
2013-05-01 01:09:00,56.0,34.0,29.91,SW,226,3.0,5.0,43,0.00,,,0.00,Meteo,2013-05-01 06:09:00,
2013-05-01 01:14:00,56.0,34.0,29.93,SW,234,1.0,2.0,43,0.00,,,0.00,Meteo,2013-05-01 06:14:00,
2013-05-01 01:19:00,56.0,34.0,29.93,SSW,213,3.0,5.0,43,0.00,,,0.00,Meteo,2013-05-01 06:19:00,
2013-05-01 01:24:00,56.0,34.0,29.94,SW,229,2.0,5.0,44,0.00,,,0.00,Meteo,2013-05-01 06:24:00,
2013-05-01 01:29:00,56.0,35.0,29.94,SW,234,2.0,3.0,45,0.00,,,0.00,Meteo,2013-05-01 06:29:00,
2013-05-01 01:34:00,55.0,35.0,29.94,WSW,246,3.0,7.0,46,0.00,,,0.00,Meteo,2013-05-01 06:34:00,
2013-05-01 01:39:00,55.0,34.0,29.94,SSW,211,2.0,4.0,45,0.00,,,0.00,Meteo,2013-05-01 06:39:00,
2013-05-01 01:44:00,55.0,34.0,29.94,SW,230,2.0,4.0,45,0.00,,,0.00,Meteo,2013-05-01 06:44:00,
2013-05-01 01:49:00,55.0,34.0,29.94,SW,227,3.0,4.0,45,0.00,,,0.00,Meteo,2013-05-01 06:49:00,
2013-05-01 01:54:00,55.0,35.0,29.94,SSW,207,2.0,3.0,46,0.00,,,0.00,Meteo,2013-05-01 06:54:00,
2013-05-01 01:59:00,55.0,35.0,29.96,SSW,204,1.0,2.0,46,0.00,,,0.00,Meteo,2013-05-01 06:59:00,
2013-05-01 02:04:00,55.0,35.0,29.96,SSW,203,3.0,4.0,46,0.00,,,0.00,Meteo,2013-05-01 07:04:00,
2013-05-01 02:09:00,55.0,35.0,29.96,SSW,198,2.0,4.0,47,0.00,,,0.00,Meteo,2013-05-01 07:09:00,
2013-05-01 02:14:00,55.0,35.0,29.96,SW,218,1.0,2.0,47,0.00,,,0.00,Meteo,2013-05-01 07:14:00,
2013-05-01 02:19:00,54.0,34.0,29.95,SW,234,0.0,2.0,47,0.00,,,0.00,Meteo,2013-05-01 07:19:00,
2013-05-01 02:24:00,54.0,34.0,29.95,WNW,289,1.0,3.0,47,0.00,,,0.00,Meteo,2013-05-01 07:24:00,
2013-05-01 02:29:00,54.0,34.0,29.95,NW,314,1.0,2.0,47,0.00,,,0.00,Meteo,2013-05-01 07:29:00,
2013-05-01 02:34:00,54.0,35.0,29.96,WSW,248,5.0,8.0,48,0.00,,,0.00,Meteo,2013-05-01 07:34:00,
2013-05-01 02:39:00,54.0,35.0,29.96,NW,322,4.0,5.0,48,0.00,,,0.00,Meteo,2013-05-01 07:39:00,
2013-05-01 02:44:00,54.0,35.0,29.97,NW,312,4.0,6.0,48,0.00,,,0.00,Meteo,2013-05-01 07:44:00,
2013-05-01 02:49:00,52.0,34.0,29.97,NW,311,4.0,7.0,50,0.00,,,0.00,Meteo,2013-05-01 07:49:00,
2013-05-01 02:54:00,52.0,35.0,29.97,NW,314,3.0,4.0,52,0.00,,,0.00,Meteo,2013-05-01 07:54:00,
2013-05-01 02:59:00,51.0,34.0,29.97,NW,304,2.0,4.0,53,0.00,,,0.00,Meteo,2013-05-01 07:59:00,
2013-05-01 03:04:00,51.0,34.0,29.96,NNW,327,2.0,4.0,53,0.00,,,0.00,Meteo,2013-05-01 08:04:00,
2013-05-01 03:09:00,51.0,34.0,29.97,NW,310,3.0,5.0,53,0.00,,,0.00,Meteo,2013-05-01 08:09:00,
2013-05-01 03:14:00,51.0,34.0,29.98,NW,311,2.0,5.0,52,0.00,,,0.00,Meteo,2013-05-01 08:14:00,
2013-05-01 03:19:00,51.0,34.0,29.98,NW,314,2.0,4.0,53,0.00,,,0.00,Meteo,2013-05-01 08:19:00,
2013-05-01 03:24:00,51.0,34.0,29.98,WNW,299,0.0,1.0,53,0.00,,,0.00,Meteo,2013-05-01 08:24:00,
2013-05-01 03:29:00,51.0,35.0,29.98,West,278,1.0,3.0,54,0.00,,,0.00,Meteo,2013-05-01 08:29:00,
2013-05-01 03:34:00,51.0,35.0,29.99,West,276,1.0,2.0,54,0.00,,,0.00,Meteo,2013-05-01 08:34:00,
2013-05-01 03:39:00,51.0,35.0,29.99,WNW,289,1.0,3.0,54,0.00,,,0.00,Meteo,2013-05-01 08:39:00,
2013-05-01 03:44:00,51.0,35.0,30.00,West,278,1.0,3.0,55,0.00,,,0.00,Meteo,2013-05-01 08:44:00,
2013-05-01 03:49:00,51.0,35.0,30.00,WNW,287,3.0,5.0,54,0.00,,,0.00,Meteo,2013-05-01 08:49:00,
2013-05-01 03:54:00,51.0,34.0,30.01,WSW,240,2.0,7.0,53,0.00,,,0.00,Meteo,2013-05-01 08:54:00,
2013-05-01 03:59:00,50.0,34.0,30.00,WNW,284,4.0,7.0,54,0.00,,,0.00,Meteo,2013-05-01 08:59:00,
2013-05-01 04:04:00,50.0,34.0,30.01,WNW,290,3.0,6.0,53,0.00,,,0.00,Meteo,2013-05-01 09:04:00,
2013-05-01 04:09:00,50.0,33.0,30.01,NW,304,1.0,2.0,52,0.00,,,0.00,Meteo,2013-05-01 09:09:00,
2013-05-01 04:14:00,50.0,34.0,30.02,West,274,1.0,2.0,54,0.00,,,0.00,Meteo,2013-05-01 09:14:00,
2013-05-01 04:19:00,50.0,34.0,30.02,WNW,282,3.0,5.0,54,0.00,,,0.00,Meteo,2013-05-01 09:19:00,
2013-05-01 04:25:00,50.0,34.0,30.03,WNW,292,1.0,2.0,53,0.00,,,0.00,Meteo,2013-05-01 09:25:00,
2013-05-01 04:30:00,49.0,33.0,30.03,West,281,2.0,3.0,54,0.00,,,0.00,Meteo,2013-05-01 09:30:00,
2013-05-01 04:35:00,49.0,33.0,30.04,West,271,2.0,4.0,54,0.00,,,0.00,Meteo,2013-05-01 09:35:00,
2013-05-01 04:40:00,49.0,34.0,30.04,West,265,2.0,4.0,55,0.00,,,0.00,Meteo,2013-05-01 09:40:00,
2013-05-01 04:45:00,49.0,33.0,30.04,West,274,2.0,3.0,54,0.00,,,0.00,Meteo,2013-05-01 09:45:00,
2013-05-01 04:50:00,49.0,33.0,30.04,SSW,212,1.0,3.0,54,0.00,,,0.00,Meteo,2013-05-01 09:50:00,
2013-05-01 04:55:00,49.0,33.0,30.04,SW,236,1.0,2.0,54,0.00,,,0.00,Meteo,2013-05-01 09:55:00,
2013-05-01 05:00:00,49.0,34.0,30.04,South,177,0.0,2.0,55,0.00,,,0.00,Meteo,2013-05-01 10:00:00,
2013-05-01 05:05:00,49.0,33.0,30.04,West,262,1.0,2.0,54,0.00,,,0.00,Meteo,2013-05-01 10:05:00,
2013-05-01 05:10:00,49.0,34.0,30.04,West,266,1.0,3.0,55,0.00,,,0.00,Meteo,2013-05-01 10:10:00,
2013-05-01 05:15:00,48.0,32.0,30.04,SSW,197,1.0,2.0,54,0.00,,,0.00,Meteo,2013-05-01 10:15:00,
2013-05-01 05:20:00,48.0,32.0,30.04,SW,231,1.0,2.0,54,0.00,,,0.00,Meteo,2013-05-01 10:20:00,
2013-05-01 05:25:00,48.0,32.0,30.04,WSW,238,1.0,3.0,54,0.00,,,0.00,Meteo,2013-05-01 10:25:00,
2013-05-01 05:30:00,48.0,32.0,30.05,SW,229,1.0,3.0,54,0.00,,,0.00,Meteo,2013-05-01 10:30:00,
2013-05-01 05:35:00,48.0,33.0,30.06,SSW,210,2.0,3.0,56,0.00,,,0.00,Meteo,2013-05-01 10:35:00,
2013-05-01 05:40:00,48.0,34.0,30.06,SW,234,1.0,2.0,57,0.00,,,0.00,Meteo,2013-05-01 10:40:00,
2013-05-01 05:45:00,48.0,34.0,30.06,SW,232,2.0,3.0,59,0.00,,,0.00,Meteo,2013-05-01 10:45:00,
2013-05-01 05:50:00,48.0,34.0,30.06,WSW,253,1.0,3.0,59,0.00,,,0.00,Meteo,2013-05-01 10:50:00,
2013-05-01 05:55:00,48.0,35.0,30.06,SW,221,1.0,3.0,61,0.00,,,0.00,Meteo,2013-05-01 10:55:00,
2013-05-01 06:00:00,47.0,35.0,30.06,North,0,0.0,0.0,63,0.00,,,0.00,Meteo,2013-05-01 11:00:00,
2013-05-01 06:05:00,47.0,36.0,30.06,SSW,200,1.0,2.0,66,0.00,,,0.00,Meteo,2013-05-01 11:05:00,
2013-05-01 06:10:00,47.0,36.0,30.06,SSW,200,0.0,1.0,66,0.00,,,0.00,Meteo,2013-05-01 11:10:00,
2013-05-01 06:15:00,47.0,37.0,30.06,WSW,246,0.0,1.0,67,0.00,,,0.00,Meteo,2013-05-01 11:15:00,
2013-05-01 06:20:00,46.0,36.0,30.06,WSW,247,0.0,1.0,69,0.00,,,0.00,Meteo,2013-05-01 11:20:00,
2013-05-01 06:25:00,46.0,37.0,30.07,WSW,247,1.0,2.0,71,0.00,,,0.00,Meteo,2013-05-01 11:25:00,
2013-05-01 06:30:00,46.0,37.0,30.08,WSW,246,1.0,2.0,72,0.00,,,0.00,Meteo,2013-05-01 11:30:00,
2013-05-01 06:35:00,46.0,37.0,30.09,West,265,1.0,2.0,71,0.00,,,0.00,Meteo,2013-05-01 11:35:00,
2013-05-01 06:40:00,45.0,37.0,30.09,West,272,1.0,2.0,72,0.00,,,0.00,Meteo,2013-05-01 11:40:00,
2013-05-01 06:45:00,45.0,37.0,30.09,West,275,1.0,3.0,72,0.00,,,0.00,Meteo,2013-05-01 11:45:00,
2013-05-01 06:50:00,45.0,37.0,30.09,NW,307,2.0,5.0,74,0.01,,,0.01,Meteo,2013-05-01 11:50:00,
2013-05-01 06:55:00,45.0,37.0,30.09,WNW,299,3.0,6.0,72,0.01,,,0.01,Meteo,2013-05-01 11:55:00,
2013-05-01 07:00:00,44.0,36.0,30.09,SW,230,1.0,3.0,74,0.01,,,0.01,Meteo,2013-05-01 12:00:00,
2013-05-01 07:05:00,44.0,37.0,30.10,West,280,0.0,1.0,75,0.01,,,0.01,Meteo,2013-05-01 12:05:00,
2013-05-01 07:10:00,44.0,37.0,30.11,WNW,282,1.0,2.0,77,0.01,,,0.01,Meteo,2013-05-01 12:10:00,
2013-05-01 07:15:00,44.0,38.0,30.12,WNW,290,1.0,3.0,78,0.01,,,0.01,Meteo,2013-05-01 12:15:00,
2013-05-01 07:20:00,43.0,37.0,30.12,West,261,1.0,2.0,78,0.01,,,0.01,Meteo,2013-05-01 12:20:00,
2013-05-01 07:25:00,43.0,37.0,30.13,WSW,249,0.0,1.0,78,0.01,,,0.01,Meteo,2013-05-01 12:25:00,
2013-05-01 07:30:00,43.0,37.0,30.13,West,259,1.0,2.0,79,0.01,,,0.01,Meteo,2013-05-01 12:30:00,
2013-05-01 07:35:00,43.0,37.0,30.14,NW,308,0.0,1.0,79,0.01,,,0.01,Meteo,2013-05-01 12:35:00,
2013-05-01 07:40:00,43.0,37.0,30.14,NW,322,1.0,3.0,79,0.02,,,0.02,Meteo,2013-05-01 12:40:00,
2013-05-01 07:45:00,43.0,37.0,30.14,NW,304,1.0,3.0,79,0.02,,,0.02,Meteo,2013-05-01 12:45:00,
2013-05-01 07:50:00,42.0,36.0,30.15,WSW,243,2.0,5.0,79,0.01,,,0.02,Meteo,2013-05-01 12:50:00,
2013-05-01 07:55:00,42.0,36.0,30.16,West,268,1.0,4.0,79,0.02,,,0.03,Meteo,2013-05-01 12:55:00,
2013-05-01 08:00:00,42.0,36.0,30.18,WNW,291,1.0,2.0,80,0.02,,,0.03,Meteo,2013-05-01 13:00:00,
2013-05-01 08:05:00,42.0,36.0,30.18,WNW,298,2.0,4.0,80,0.02,,,0.03,Meteo,2013-05-01 13:05:00,
2013-05-01 08:10:00,42.0,35.0,30.19,WNW,293,3.0,5.0,76,0.02,,,0.03,Meteo,2013-05-01 13:10:00,
2013-05-01 08:15:00,42.0,35.0,30.19,West,277,1.0,2.0,75,0.02,,,0.03,Meteo,2013-05-01 13:15:00,
2013-05-01 08:21:00,41.0,34.0,30.19,West,278,1.0,3.0,76,0.02,,,0.03,Meteo,2013-05-01 13:21:00,
2013-05-01 08:26:00,41.0,34.0,30.19,West,278,2.0,4.0,77,0.02,,,0.03,Meteo,2013-05-01 13:26:00,
2013-05-01 08:31:00,41.0,34.0,30.20,WSW,249,2.0,3.0,75,0.02,,,0.03,Meteo,2013-05-01 13:31:00,
2013-05-01 08:36:00,41.0,34.0,30.22,WSW,254,1.0,3.0,77,0.02,,,0.03,Meteo,2013-05-01 13:36:00,
2013-05-01 08:41:00,40.0,33.0,30.22,WSW,256,1.0,2.0,77,0.01,,,0.03,Meteo,2013-05-01 13:41:00,
2013-05-01 08:46:00,40.0,34.0,30.22,SW,234,2.0,4.0,79,0.01,,,0.03,Meteo,2013-05-01 13:46:00,
2013-05-01 08:51:00,40.0,34.0,30.22,SW,229,3.0,5.0,78,0.01,,,0.03,Meteo,2013-05-01 13:51:00,
2013-05-01 08:56:00,40.0,34.0,30.22,West,268,3.0,6.0,78,0.00,,,0.03,Meteo,2013-05-01 13:56:00,
2013-05-01 09:01:00,40.0,34.0,30.22,WSW,258,1.0,2.0,79,0.01,,,0.04,Meteo,2013-05-01 14:01:00,
2013-05-01 09:06:00,40.0,34.0,30.22,West,259,1.0,2.0,80,0.01,,,0.04,Meteo,2013-05-01 14:06:00,
2013-05-01 09:11:00,40.0,34.0,30.22,West,262,1.0,3.0,80,0.01,,,0.04,Meteo,2013-05-01 14:11:00,
2013-05-01 09:16:00,39.0,33.0,30.22,WNW,283,1.0,3.0,80,0.02,,,0.05,Meteo,2013-05-01 14:16:00,
2013-05-01 09:21:00,39.0,34.0,30.22,WNW,283,1.0,3.0,81,0.02,,,0.05,Meteo,2013-05-01 14:21:00,
2013-05-01 09:26:00,39.0,34.0,30.22,West,265,1.0,2.0,81,0.02,,,0.05,Meteo,2013-05-01 14:26:00,
2013-05-01 09:31:00,39.0,33.0,30.22,NW,305,2.0,5.0,80,0.02,,,0.05,Meteo,2013-05-01 14:31:00,
2013-05-01 09:36:00,39.0,34.0,30.22,West,269,1.0,2.0,81,0.02,,,0.05,Meteo,2013-05-01 14:36:00,
2013-05-01 09:41:00,39.0,34.0,30.22,WNW,289,2.0,3.0,81,0.02,,,0.05,Meteo,2013-05-01 14:41:00,
2013-05-01 09:46:00,38.0,33.0,30.22,NW,306,0.0,2.0,82,0.02,,,0.05,Meteo,2013-05-01 14:46:00,
2013-05-01 09:51:00,38.0,33.0,30.22,West,265,2.0,3.0,83,0.02,,,0.05,Meteo,2013-05-01 14:51:00,
2013-05-01 09:56:00,38.0,33.0,30.23,West,278,1.0,2.0,83,0.02,,,0.05,Meteo,2013-05-01 14:56:00,
2013-05-01 10:01:00,38.0,34.0,30.23,SW,230,2.0,4.0,84,0.01,,,0.05,Meteo,2013-05-01 15:01:00,
2013-05-01 10:06:00,38.0,34.0,30.23,WSW,242,1.0,4.0,84,0.01,,,0.05,Meteo,2013-05-01 15:06:00,
2013-05-01 10:11:00,38.0,33.0,30.24,WNW,298,1.0,3.0,83,0.01,,,0.05,Meteo,2013-05-01 15:11:00,
2013-05-01 10:17:00,38.0,34.0,30.23,WSW,249,2.0,3.0,84,0.00,,,0.05,Meteo,2013-05-01 15:17:00,
2013-05-01 10:22:00,38.0,34.0,30.24,WNW,285,1.0,4.0,84,0.00,,,0.05,Meteo,2013-05-01 15:22:00,
2013-05-01 10:28:00,38.0,33.0,30.23,WNW,283,2.0,4.0,83,0.00,,,0.05,Meteo,2013-05-01 15:28:00,
2013-05-01 10:33:00,38.0,34.0,30.24,West,260,0.0,1.0,84,0.00,,,0.05,Meteo,2013-05-01 15:33:00,
2013-05-01 10:38:00,38.0,34.0,30.23,SSW,193,2.0,4.0,84,0.00,,,0.05,Meteo,2013-05-01 15:38:00,
2013-05-01 10:43:00,38.0,33.0,30.23,WSW,250,3.0,5.0,83,0.00,,,0.05,Meteo,2013-05-01 15:43:00,
2013-05-01 10:48:00,38.0,33.0,30.23,West,273,3.0,4.0,82,0.00,,,0.05,Meteo,2013-05-01 15:48:00,
2013-05-01 10:53:00,38.0,33.0,30.23,WNW,289,2.0,4.0,82,0.00,,,0.05,Meteo,2013-05-01 15:53:00,
2013-05-01 10:58:00,38.0,33.0,30.24,NW,316,4.0,7.0,81,0.00,,,0.05,Meteo,2013-05-01 15:58:00,
2013-05-01 11:03:00,38.0,32.0,30.24,NW,307,4.0,8.0,79,0.00,,,0.05,Meteo,2013-05-01 16:03:00,
2013-05-01 11:08:00,37.0,31.0,30.24,West,262,2.0,3.0,80,0.00,,,0.05,Meteo,2013-05-01 16:08:00,
2013-05-01 11:13:00,37.0,32.0,30.25,WSW,252,2.0,3.0,82,0.00,,,0.05,Meteo,2013-05-01 16:13:00,
2013-05-01 11:18:00,37.0,31.0,30.25,WSW,253,2.0,4.0,80,0.00,,,0.05,Meteo,2013-05-01 16:18:00,
2013-05-01 11:23:00,37.0,31.0,30.25,WNW,282,1.0,2.0,80,0.00,,,0.05,Meteo,2013-05-01 16:23:00,
2013-05-01 11:28:00,37.0,32.0,30.25,WSW,237,2.0,4.0,81,0.00,,,0.05,Meteo,2013-05-01 16:28:00,
2013-05-01 11:33:00,37.0,31.0,30.25,WSW,254,1.0,3.0,80,0.00,,,0.05,Meteo,2013-05-01 16:33:00,
2013-05-01 11:38:00,37.0,32.0,30.25,WSW,239,2.0,3.0,81,0.00,,,0.05,Meteo,2013-05-01 16:38:00,
2013-05-01 11:43:00,37.0,32.0,30.25,SW,222,1.0,2.0,81,0.00,,,0.05,Meteo,2013-05-01 16:43:00,
2013-05-01 11:48:00,37.0,32.0,30.25,SW,233,1.0,2.0,81,0.00,,,0.05,Meteo,2013-05-01 16:48:00,
2013-05-01 11:53:00,37.0,31.0,30.25,WSW,247,2.0,3.0,80,0.00,,,0.05,Meteo,2013-05-01 16:53:00,
2013-05-01 11:58:00,37.0,32.0,30.25,West,259,1.0,3.0,81,0.00,,,0.05,Meteo,2013-05-01 16:58:00,
2013-05-01 12:03:00,37.0,31.0,30.25,WNW,302,2.0,3.0,80,0.00,,,0.05,Meteo,2013-05-01 17:03:00,
2013-05-01 12:08:00,37.0,31.0,30.26,WNW,295,4.0,6.0,79,0.00,,,0.05,Meteo,2013-05-01 17:08:00,
2013-05-01 12:13:00,37.0,31.0,30.26,WNW,301,1.0,2.0,80,0.00,,,0.05,Meteo,2013-05-01 17:13:00,
2013-05-01 12:18:00,36.0,30.0,30.26,NW,319,3.0,4.0,79,0.00,,,0.05,Meteo,2013-05-01 17:18:00,
2013-05-01 12:23:00,36.0,30.0,30.25,NW,321,4.0,5.0,78,0.00,,,0.05,Meteo,2013-05-01 17:23:00,
2013-05-01 12:28:00,36.0,30.0,30.27,NW,308,3.0,5.0,78,0.00,,,0.05,Meteo,2013-05-01 17:28:00,
2013-05-01 12:33:00,36.0,30.0,30.27,West,264,2.0,5.0,79,0.00,,,0.05,Meteo,2013-05-01 17:33:00,
2013-05-01 12:38:00,36.0,30.0,30.27,NW,304,4.0,6.0,79,0.00,,,0.05,Meteo,2013-05-01 17:38:00,
2013-05-01 12:43:00,35.0,29.0,30.28,WSW,246,4.0,6.0,78,0.00,,,0.05,Meteo,2013-05-01 17:43:00,
2013-05-01 12:48:00,35.0,29.0,30.28,WNW,288,3.0,7.0,78,0.00,,,0.05,Meteo,2013-05-01 17:48:00,
2013-05-01 12:53:00,35.0,29.0,30.29,NW,310,4.0,6.0,78,0.00,,,0.05,Meteo,2013-05-01 17:53:00,
2013-05-01 12:58:00,35.0,29.0,30.29,West,259,1.0,4.0,79,0.00,,,0.05,Meteo,2013-05-01 17:58:00,
2013-05-01 13:03:00,35.0,29.0,30.29,SW,235,1.0,2.0,80,0.00,,,0.05,Meteo,2013-05-01 18:03:00,
2013-05-01 13:08:00,35.0,29.0,30.30,West,281,2.0,4.0,80,0.00,,,0.05,Meteo,2013-05-01 18:08:00,
2013-05-01 13:13:00,35.0,29.0,30.30,WSW,246,1.0,2.0,79,0.00,,,0.05,Meteo,2013-05-01 18:13:00,
2013-05-01 13:18:00,35.0,29.0,30.30,West,273,1.0,3.0,80,0.00,,,0.05,Meteo,2013-05-01 18:18:00,
2013-05-01 13:23:00,35.0,29.0,30.30,West,262,3.0,5.0,79,0.00,,,0.05,Meteo,2013-05-01 18:23:00,
2013-05-01 13:28:00,35.0,29.0,30.31,WNW,289,2.0,3.0,80,0.01,,,0.06,Meteo,2013-05-01 18:28:00,
2013-05-01 13:33:00,35.0,30.0,30.30,West,271,1.0,4.0,81,0.01,,,0.06,Meteo,2013-05-01 18:33:00,
2013-05-01 13:38:00,35.0,30.0,30.30,NNW,330,1.0,5.0,81,0.01,,,0.06,Meteo,2013-05-01 18:38:00,
2013-05-01 13:43:00,35.0,30.0,30.31,WNW,288,2.0,4.0,81,0.01,,,0.06,Meteo,2013-05-01 18:43:00,
2013-05-01 13:48:00,35.0,30.0,30.31,West,260,1.0,2.0,81,0.01,,,0.06,Meteo,2013-05-01 18:48:00,
2013-05-01 13:53:00,35.0,30.0,30.32,West,269,3.0,6.0,81,0.01,,,0.06,Meteo,2013-05-01 18:53:00,
2013-05-01 13:58:00,35.0,29.0,30.31,WNW,282,1.0,2.0,80,0.01,,,0.06,Meteo,2013-05-01 18:58:00,
2013-05-01 14:03:00,35.0,29.0,30.31,NW,312,6.0,8.0,77,0.01,,,0.06,Meteo,2013-05-01 19:03:00,
2013-05-01 14:08:00,35.0,28.0,30.31,West,280,1.0,3.0,76,0.01,,,0.06,Meteo,2013-05-01 19:08:00,
2013-05-01 14:13:00,35.0,28.0,30.31,NW,321,4.0,6.0,76,0.01,,,0.06,Meteo,2013-05-01 19:13:00,
2013-05-01 14:18:00,35.0,29.0,30.30,West,273,2.0,4.0,77,0.01,,,0.06,Meteo,2013-05-01 19:18:00,
2013-05-01 14:23:00,35.0,29.0,30.32,WNW,300,1.0,2.0,77,0.01,,,0.06,Meteo,2013-05-01 19:23:00,
2013-05-01 14:28:00,36.0,30.0,30.31,WNW,299,2.0,4.0,77,0.00,,,0.06,Meteo,2013-05-01 19:28:00,
2013-05-01 14:33:00,36.0,30.0,30.32,WNW,287,1.0,2.0,78,0.00,,,0.06,Meteo,2013-05-01 19:33:00,
2013-05-01 14:38:00,36.0,30.0,30.33,SSW,200,1.0,2.0,78,0.00,,,0.06,Meteo,2013-05-01 19:38:00,
2013-05-01 14:43:00,36.0,30.0,30.33,NNW,327,1.0,2.0,78,0.00,,,0.06,Meteo,2013-05-01 19:43:00,
2013-05-01 14:48:00,36.0,30.0,30.32,NW,318,1.0,3.0,77,0.00,,,0.06,Meteo,2013-05-01 19:48:00,
2013-05-01 14:53:00,35.0,29.0,30.33,NW,305,1.0,2.0,79,0.00,,,0.06,Meteo,2013-05-01 19:53:00,
2013-05-01 14:58:00,36.0,30.0,30.33,WNW,299,1.0,3.0,79,0.00,,,0.06,Meteo,2013-05-01 19:58:00,
2013-05-01 15:03:00,36.0,30.0,30.33,West,278,0.0,1.0,80,0.00,,,0.06,Meteo,2013-05-01 20:03:00,
2013-05-01 15:08:00,36.0,30.0,30.34,WSW,240,4.0,6.0,80,0.00,,,0.06,Meteo,2013-05-01 20:08:00,
2013-05-01 15:13:00,36.0,30.0,30.34,North,9,0.0,2.0,80,0.00,,,0.06,Meteo,2013-05-01 20:13:00,
2013-05-01 15:18:00,36.0,31.0,30.35,WSW,250,2.0,4.0,81,0.00,,,0.06,Meteo,2013-05-01 20:18:00,
2013-05-01 15:23:00,36.0,31.0,30.34,West,260,1.0,2.0,81,0.00,,,0.06,Meteo,2013-05-01 20:23:00,
2013-05-01 15:28:00,36.0,31.0,30.34,SSW,205,1.0,2.0,82,0.00,,,0.06,Meteo,2013-05-01 20:28:00,
2013-05-01 15:33:00,36.0,31.0,30.35,South,177,1.0,3.0,82,0.00,,,0.06,Meteo,2013-05-01 20:33:00,
2013-05-01 15:38:00,36.0,31.0,30.34,SW,215,1.0,3.0,83,0.00,,,0.06,Meteo,2013-05-01 20:38:00,
2013-05-01 15:43:00,36.0,31.0,30.34,South,191,1.0,3.0,83,0.00,,,0.06,Meteo,2013-05-01 20:43:00,
2013-05-01 15:49:00,36.0,31.0,30.34,SSW,198,1.0,2.0,83,0.00,,,0.06,Meteo,2013-05-01 20:49:00,
2013-05-01 15:54:00,36.0,32.0,30.35,SSW,194,1.0,2.0,84,0.00,,,0.06,Meteo,2013-05-01 20:54:00,
2013-05-01 15:59:00,36.0,32.0,30.34,South,188,1.0,2.0,85,0.00,,,0.06,Meteo,2013-05-01 20:59:00,
2013-05-01 16:04:00,37.0,33.0,30.35,SSE,166,2.0,3.0,85,0.00,,,0.06,Meteo,2013-05-01 21:04:00,
2013-05-01 16:09:00,37.0,33.0,30.35,SSE,168,1.0,2.0,85,0.00,,,0.06,Meteo,2013-05-01 21:09:00,
2013-05-01 16:14:00,37.0,33.0,30.35,South,185,2.0,3.0,85,0.00,,,0.06,Meteo,2013-05-01 21:14:00,
2013-05-01 16:19:00,37.0,33.0,30.35,South,183,2.0,2.0,85,0.00,,,0.06,Meteo,2013-05-01 21:19:00,
2013-05-01 16:24:00,37.0,33.0,30.35,South,180,2.0,3.0,85,0.00,,,0.06,Meteo,2013-05-01 21:24:00,
2013-05-01 16:29:00,37.0,33.0,30.35,South,181,1.0,3.0,84,0.00,,,0.06,Meteo,2013-05-01 21:29:00,
2013-05-01 16:34:00,37.0,33.0,30.35,South,179,2.0,3.0,84,0.00,,,0.06,Meteo,2013-05-01 21:34:00,
2013-05-01 16:39:00,37.0,33.0,30.36,South,185,1.0,2.0,85,0.00,,,0.06,Meteo,2013-05-01 21:39:00,
2013-05-01 16:44:00,37.0,33.0,30.37,SSE,167,1.0,2.0,85,0.00,,,0.06,Meteo,2013-05-01 21:44:00,
2013-05-01 16:49:00,37.0,33.0,30.36,South,176,1.0,2.0,84,0.00,,,0.06,Meteo,2013-05-01 21:49:00,
2013-05-01 16:54:00,37.0,33.0,30.37,South,175,2.0,3.0,84,0.00,,,0.06,Meteo,2013-05-01 21:54:00,
2013-05-01 16:59:00,37.0,33.0,30.37,South,175,2.0,4.0,84,0.00,,,0.06,Meteo,2013-05-01 21:59:00,
2013-05-01 17:04:00,37.0,33.0,30.37,South,177,2.0,4.0,85,0.00,,,0.06,Meteo,2013-05-01 22:04:00,
2013-05-01 17:09:00,37.0,33.0,30.38,SSE,148,4.0,7.0,85,0.00,,,0.06,Meteo,2013-05-01 22:09:00,
2013-05-01 17:14:00,37.0,33.0,30.38,South,174,2.0,5.0,85,0.00,,,0.06,Meteo,2013-05-01 22:14:00,
2013-05-01 17:19:00,37.0,33.0,30.38,SSE,154,2.0,3.0,85,0.00,,,0.06,Meteo,2013-05-01 22:19:00,
2013-05-01 17:24:00,37.0,33.0,30.38,SSE,153,2.0,4.0,85,0.00,,,0.06,Meteo,2013-05-01 22:24:00,
2013-05-01 17:29:00,37.0,33.0,30.38,SSE,153,3.0,4.0,85,0.00,,,0.06,Meteo,2013-05-01 22:29:00,
2013-05-01 17:34:00,37.0,33.0,30.38,SSE,149,1.0,3.0,84,0.00,,,0.06,Meteo,2013-05-01 22:34:00,
2013-05-01 17:39:00,37.0,33.0,30.38,SSE,157,1.0,3.0,85,0.00,,,0.06,Meteo,2013-05-01 22:39:00,
2013-05-01 17:44:00,37.0,33.0,30.38,SSE,160,1.0,3.0,85,0.00,,,0.06,Meteo,2013-05-01 22:44:00,
2013-05-01 17:49:00,37.0,33.0,30.38,South,188,2.0,3.0,85,0.00,,,0.06,Meteo,2013-05-01 22:49:00,
2013-05-01 17:54:00,37.0,33.0,30.38,South,169,2.0,3.0,84,0.00,,,0.06,Meteo,2013-05-01 22:54:00,
2013-05-01 18:00:00,37.0,33.0,30.39,SW,215,0.0,2.0,85,0.00,,,0.06,Meteo,2013-05-01 23:00:00,
2013-05-01 18:05:00,37.0,33.0,30.39,SSE,163,1.0,2.0,84,0.00,,,0.06,Meteo,2013-05-01 23:05:00,
2013-05-01 18:10:00,37.0,33.0,30.38,SSE,163,1.0,2.0,84,0.00,,,0.06,Meteo,2013-05-01 23:10:00,
2013-05-01 18:15:00,37.0,33.0,30.39,South,170,1.0,3.0,85,0.00,,,0.06,Meteo,2013-05-01 23:15:00,
2013-05-01 18:20:00,37.0,33.0,30.39,South,189,1.0,2.0,85,0.00,,,0.06,Meteo,2013-05-01 23:20:00,
2013-05-01 18:25:00,37.0,33.0,30.40,SSE,161,1.0,2.0,85,0.00,,,0.06,Meteo,2013-05-01 23:25:00,
2013-05-01 18:30:00,37.0,33.0,30.40,SSE,160,1.0,3.0,86,0.00,,,0.06,Meteo,2013-05-01 23:30:00,
2013-05-01 18:35:00,37.0,33.0,30.40,SSE,160,2.0,4.0,86,0.00,,,0.06,Meteo,2013-05-01 23:35:00,
2013-05-01 18:40:00,36.0,32.0,30.40,SSE,161,1.0,3.0,86,0.00,,,0.06,Meteo,2013-05-01 23:40:00,
2013-05-01 18:45:00,36.0,32.0,30.40,South,178,1.0,2.0,86,0.00,,,0.06,Meteo,2013-05-01 23:45:00,
2013-05-01 18:50:00,36.0,32.0,30.40,South,178,0.0,1.0,86,0.00,,,0.06,Meteo,2013-05-01 23:50:00,
2013-05-01 18:55:00,36.0,32.0,30.40,South,178,0.0,1.0,86,0.00,,,0.06,Meteo,2013-05-01 23:55:00,
2013-05-01 19:00:00,36.0,33.0,30.40,South,182,1.0,3.0,87,0.00,,,0.06,Meteo,2013-05-02 00:00:00,
2013-05-01 19:05:00,36.0,33.0,30.41,SSW,208,1.0,2.0,87,0.00,,,0.00,Meteo,2013-05-02 00:05:00,
2013-05-01 19:10:00,36.0,33.0,30.40,South,172,2.0,3.0,87,0.00,,,0.00,Meteo,2013-05-02 00:10:00,
2013-05-01 19:15:00,36.0,33.0,30.41,North,0,0.0,0.0,87,0.00,,,0.00,Meteo,2013-05-02 00:15:00,
2013-05-01 19:20:00,36.0,33.0,30.41,SSW,198,0.0,1.0,87,0.00,,,0.00,Meteo,2013-05-02 00:20:00,
2013-05-01 19:25:00,36.0,32.0,30.41,SSW,198,0.0,2.0,86,0.00,,,0.00,Meteo,2013-05-02 00:25:00,
2013-05-01 19:30:00,36.0,32.0,30.41,North,0,0.0,0.0,86,0.00,,,0.00,Meteo,2013-05-02 00:30:00,
2013-05-01 19:35:00,36.0,32.0,30.42,SW,219,1.0,2.0,86,0.00,,,0.00,Meteo,2013-05-02 00:35:00,
2013-05-01 19:40:00,36.0,33.0,30.42,North,0,0.0,0.0,87,0.00,,,0.00,Meteo,2013-05-02 00:40:00,
2013-05-01 19:45:00,36.0,33.0,30.43,North,0,0.0,0.0,87,0.00,,,0.00,Meteo,2013-05-02 00:45:00,
2013-05-01 19:50:00,36.0,32.0,30.42,NW,306,1.0,3.0,85,0.00,,,0.00,Meteo,2013-05-02 00:50:00,
2013-05-01 19:55:00,37.0,33.0,30.42,North,0,0.0,0.0,84,0.00,,,0.00,Meteo,2013-05-02 00:55:00,
2013-05-01 20:00:00,37.0,33.0,30.42,NNW,343,1.0,2.0,84,0.00,,,0.00,Meteo,2013-05-02 01:00:00,
2013-05-01 20:05:00,37.0,32.0,30.41,North,0,2.0,3.0,83,0.00,,,0.00,Meteo,2013-05-02 01:05:00,
2013-05-01 20:10:00,37.0,31.0,30.41,North,355,3.0,6.0,79,0.00,,,0.00,Meteo,2013-05-02 01:10:00,
2013-05-01 20:15:00,37.0,30.0,30.42,North,2,2.0,3.0,76,0.00,,,0.00,Meteo,2013-05-02 01:15:00,
2013-05-01 20:20:00,37.0,30.0,30.42,NNW,331,3.0,7.0,76,0.00,,,0.00,Meteo,2013-05-02 01:20:00,
2013-05-01 20:25:00,37.0,29.0,30.43,North,357,3.0,5.0,74,0.00,,,0.00,Meteo,2013-05-02 01:25:00,
2013-05-01 20:30:00,38.0,30.0,30.43,NNE,26,4.0,6.0,72,0.00,,,0.00,Meteo,2013-05-02 01:30:00,
2013-05-01 20:35:00,37.0,30.0,30.42,ENE,78,2.0,4.0,75,0.00,,,0.00,Meteo,2013-05-02 01:35:00,
2013-05-01 20:40:00,37.0,30.0,30.43,NE,38,1.0,2.0,75,0.00,,,0.00,Meteo,2013-05-02 01:40:00,
2013-05-01 20:45:00,37.0,30.0,30.43,NE,39,1.0,2.0,76,0.00,,,0.00,Meteo,2013-05-02 01:45:00,
2013-05-01 20:50:00,37.0,30.0,30.44,North,0,0.0,0.0,77,0.00,,,0.00,Meteo,2013-05-02 01:50:00,
2013-05-01 20:55:00,37.0,31.0,30.45,North,0,0.0,0.0,78,0.00,,,0.00,Meteo,2013-05-02 01:55:00,
2013-05-01 21:00:00,37.0,31.0,30.45,North,0,0.0,0.0,78,0.00,,,0.00,Meteo,2013-05-02 02:00:00,
2013-05-01 21:05:00,37.0,31.0,30.44,East,94,0.0,1.0,79,0.00,,,0.00,Meteo,2013-05-02 02:05:00,
2013-05-01 21:10:00,37.0,31.0,30.44,North,0,0.0,0.0,80,0.00,,,0.00,Meteo,2013-05-02 02:10:00,
2013-05-01 21:15:00,37.0,31.0,30.44,East,94,1.0,2.0,80,0.00,,,0.00,Meteo,2013-05-02 02:15:00,
2013-05-01 21:20:00,37.0,31.0,30.45,East,94,1.0,2.0,80,0.00,,,0.00,Meteo,2013-05-02 02:20:00,
2013-05-01 21:25:00,37.0,32.0,30.46,North,0,0.0,0.0,81,0.00,,,0.00,Meteo,2013-05-02 02:25:00,
2013-05-01 21:30:00,37.0,32.0,30.46,SE,124,1.0,2.0,82,0.00,,,0.00,Meteo,2013-05-02 02:30:00,
2013-05-01 21:35:00,37.0,32.0,30.46,East,89,1.0,3.0,83,0.00,,,0.00,Meteo,2013-05-02 02:35:00,
2013-05-01 21:40:00,36.0,31.0,30.45,North,0,0.0,0.0,83,0.00,,,0.00,Meteo,2013-05-02 02:40:00,
2013-05-01 21:45:00,36.0,32.0,30.45,ESE,119,1.0,2.0,84,0.00,,,0.00,Meteo,2013-05-02 02:45:00,
2013-05-01 21:50:00,36.0,32.0,30.45,East,98,0.0,1.0,85,0.00,,,0.00,Meteo,2013-05-02 02:50:00,
2013-05-01 21:55:00,36.0,32.0,30.46,East,87,1.0,3.0,85,0.00,,,0.00,Meteo,2013-05-02 02:55:00,
2013-05-01 22:00:00,36.0,32.0,30.46,East,83,1.0,3.0,86,0.00,,,0.00,Meteo,2013-05-02 03:00:00,
2013-05-01 22:05:00,36.0,32.0,30.46,East,84,0.0,2.0,86,0.00,,,0.00,Meteo,2013-05-02 03:05:00,
2013-05-01 22:10:00,35.0,32.0,30.46,East,84,1.0,3.0,87,0.00,,,0.00,Meteo,2013-05-02 03:10:00,
2013-05-01 22:15:00,35.0,32.0,30.47,East,84,1.0,2.0,87,0.00,,,0.00,Meteo,2013-05-02 03:15:00,
2013-05-01 22:20:00,35.0,32.0,30.47,East,96,0.0,2.0,88,0.00,,,0.00,Meteo,2013-05-02 03:20:00,
2013-05-01 22:25:00,35.0,32.0,30.47,North,0,0.0,0.0,88,0.00,,,0.00,Meteo,2013-05-02 03:25:00,
2013-05-01 22:30:00,35.0,32.0,30.48,East,92,1.0,3.0,88,0.00,,,0.00,Meteo,2013-05-02 03:30:00,
2013-05-01 22:35:00,35.0,32.0,30.47,North,359,2.0,5.0,87,0.00,,,0.00,Meteo,2013-05-02 03:35:00,
2013-05-01 22:40:00,35.0,31.0,30.48,NNE,12,3.0,5.0,86,0.00,,,0.00,Meteo,2013-05-02 03:40:00,
2013-05-01 22:45:00,34.0,31.0,30.48,North,356,4.0,5.0,88,0.00,,,0.00,Meteo,2013-05-02 03:45:00,
2013-05-01 22:50:00,33.0,30.0,30.48,North,355,3.0,7.0,89,0.00,,,0.00,Meteo,2013-05-02 03:50:00,
2013-05-01 22:55:00,33.0,30.0,30.48,North,358,3.0,6.0,90,0.00,,,0.00,Meteo,2013-05-02 03:55:00,
2013-05-01 23:00:00,32.0,30.0,30.48,North,0,1.0,2.0,91,0.00,,,0.00,Meteo,2013-05-02 04:00:00,
2013-05-01 23:01:00,32.0,30.0,30.48,North,352,3.0,4.0,91,0.00,,,0.00,Meteo,2013-05-02 04:01:00,
2013-05-01 23:02:00,32.0,30.0,30.48,North,357,2.0,4.0,92,0.00,,,0.00,Meteo,2013-05-02 04:02:00,
2013-05-01 23:03:00,32.0,30.0,30.48,North,358,2.0,4.0,92,0.01,,,0.00,Meteo,2013-05-02 04:03:00,
2013-05-01 23:07:00,32.0,30.0,30.48,NNW,348,4.0,6.0,92,0.01,,,0.00,Meteo,2013-05-02 04:07:00,
2013-05-01 23:08:00,32.0,30.0,30.48,North,349,3.0,6.0,92,0.01,,,0.00,Meteo,2013-05-02 04:08:00,
2013-05-01 23:13:00,32.0,30.0,30.48,North,359,2.0,4.0,93,0.01,,,0.00,Meteo,2013-05-02 04:13:00,
2013-05-01 23:18:00,32.0,30.0,30.48,North,9,2.0,3.0,93,0.01,,,0.00,Meteo,2013-05-02 04:18:00,
2013-05-01 23:23:00,32.0,30.0,30.48,NNE,14,2.0,3.0,93,0.01,,,0.00,Meteo,2013-05-02 04:23:00,
2013-05-01 23:28:00,32.0,30.0,30.48,North,356,2.0,3.0,93,0.01,,,0.00,Meteo,2013-05-02 04:28:00,
2013-05-01 23:33:00,32.0,30.0,30.48,NNE,27,1.0,2.0,93,0.01,,,0.00,Meteo,2013-05-02 04:33:00,
2013-05-01 23:38:00,32.0,30.0,30.48,North,9,1.0,2.0,93,0.01,,,0.00,Meteo,2013-05-02 04:38:00,
2013-05-01 23:43:00,32.0,30.0,30.48,NNE,12,1.0,2.0,93,0.01,,,0.00,Meteo,2013-05-02 04:43:00,
2013-05-01 23:48:00,32.0,30.0,30.48,North,352,0.0,1.0,94,0.02,,,0.00,Meteo,2013-05-02 04:48:00,
2013-05-01 23:53:00,32.0,30.0,30.48,NE,54,0.0,1.0,94,0.02,,,0.00,Meteo,2013-05-02 04:53:00,
2013-05-01 23:58:00,32.0,30.0,30.48,North,0,0.0,2.0,94,0.02,,,0.00,Meteo,2013-05-02 04:58:00,